Weather Roundup
Issued by NWS Springfield, MO

Home | Current Version | Previous Version | Text Only | Print | Product List | Glossary On
Versions: 1 2 3 4 5 6 7 8 9 10 11 12 13 14 15 16 17 18 19 20 21 22 23 24 25 26 27 28 29 30 31 32 33 34 35 36 37 38 39 40 41 42 43 44 45 46 47 48 49 50
000
NZUS99 KSGF 280407
HRRSGF

HOURLY WEATHER
NATIONAL WEATHER SERVICE SPRINGFIELD MO
1100 PM CDT WED JUL 27 2016

......SGF CWA......

CITY           SKY/WX    TMP DP  RH WIND       PRES   REMARKS
SPRINGFIELD    CLOUDY    75  70  84 SE5       29.96R
JOPLIN         CLEAR     75  71  87 CALM      29.95S
WEST PLAINS    CLOUDY    72  69  90 NW5       29.99R
ROLLA          MOCLDY    73  69  87 SW5       29.95R
OSAGE BEACH    PTCLDY    77  74  90 CALM      29.96R
BRANSON        CLOUDY    73  73 100 CALM      29.97R

......SURROUNDING SGF CWA......

CITY           SKY/WX    TMP DP  RH WIND       PRES   REMARKS
CHANUTE        CLOUDY    80  76  87 SE7       29.95R
PARSONS        CLEAR     79  75  87 VRB3      29.96R
COFFEYVILLE    PTCLDY    79  74  84 SE6       29.95R
EMPORIA        PTCLDY    77  74  90 CALM      29.98R
GROVE OK       CLOUDY    73  73 100 CALM      29.95F
ROGERS AR      PTCLDY    70  69  97 CALM      29.98S
SILOAM SPRINGS CLOUDY    72  63  73 CALM      29.98S
HARRISON AR    CLOUDY    72  71  97 N5        29.98R
NEAR YELLVILLE CLOUDY    73  70  88 E3        29.91F

......KANSAS AND MISSOURI......

CITY           SKY/WX    TMP DP  RH WIND       PRES   REMARKS
KANSAS CTY INT PTCLDY    80  71  74 CALM      29.97R
DOWNTOWN KC    CLEAR     80  71  74 N3        29.95R
COLUMBIA       CLEAR     79  74  84 N6        29.95R
SEDALIA        PTCLDY    79  74  84 CALM      29.96R
ST JOSEPH      CLEAR     75  72  90 CALM      29.96R
ST LOUIS       CLOUDY    84  73  69 S6        29.94R HX  90
SPIRIT OF STL  CLOUDY    78  76  93 CALM      29.92S
KIRKSVILLE     PTCLDY    73  69  87 CALM      29.96R
WICHITA        PTCLDY    83  71  67 E6        29.98R
TOPEKA           N/A     77  72  84 CALM      29.96R
OLATHE         CLEAR     79  70  74 NE5       29.97R

......TENNESSEE......

CITY           SKY/WX    TMP DP  RH WIND       PRES   REMARKS
MEMPHIS        LGT RAIN  79  73  83 CALM      29.92R
NASHVILLE      CLOUDY    84  70  62 SW7       29.94F

......ARKANSAS.......

CITY           SKY/WX    TMP DP  RH WIND       PRES   REMARKS
FAYETTEVILLE   PTCLDY    71  71 100 W3        29.97S
FT SMITH       PTCLDY    79  72  79 W6        29.92F
LITTLE ROCK    CLOUDY    78  74  87 S6        29.92F

......OKLAHOMA.......

CITY           SKY/WX    TMP DP  RH WIND       PRES   REMARKS
TULSA          MOCLDY    80  76  87 SE3       29.93R
PONCA CITY     CLEAR     80  69  69 S5        29.96R
MCALESTER      PTCLDY    77  73  87 S3        29.97R
OKLAHOMA CITY  PTCLDY    75  73  93 CALM      29.98R

......IOWA............

CITY           SKY/WX    TMP DP  RH WIND       PRES   REMARKS
DES MOINES     PTCLDY    78  69  73 S3        29.95S
QUAD CITIES    PTCLDY    76  69  79 CALM      29.92S

......ILLINOIS........

CITY           SKY/WX    TMP DP  RH WIND       PRES   REMARKS
QUINCY         PTCLDY    74  70  87 E7        29.93S
CHICAGO        MOCLDY    77  65  66 VRB5      29.95S




USA.gov is the U.S. government's official web portal to all federal, state and local government web resources and services.